Location: Bamobli
(6.6379°N, 10.9396°W)
Time: 16:52:55
(UTC+00:00)

Cosmos 2237 Rocket - Pass Details

Date: 07 June 2020
Orbit: 833 x 851 km, 71.0° (Epoch: 05 July)

Event Time Altitude Azimuth Distance (km) Brightness Sun altitude
Exits shadow 03:34:18 25° 79° (E) 1,632 4.1 -38.8°
Drops below altitude 10° 03:37:36 10° 47° (NE) 2,453 5.3 -38.1°
Sets 03:40:21 0° 35° (NE) 3,390 6.2 -37.5°
